| time (UTC) | temp F | wind direction | speed MPH | gust MPH | rain 1hr in | rain 24hr in | rain mn in | humidity % | barometer mb |
| 20260509200027 | 53 | 199 | 4.0 | 10.0 | 0.01 | 0.38 | 0.38 | 90 | 1007.2 |
| 20260509194525 | 53 | 196 | 5.0 | 9.0 | 0.02 | 0.38 | 0.38 | 90 | 1007.5 |
| 20260509193023 | 53 | 191 | 3.0 | 7.0 | 0.03 | 0.38 | 0.38 | 90 | 1007.6 |
| 20260509191523 | 53 | 212 | 1.0 | 7.0 | 0.03 | 0.37 | 0.37 | 90 | 1007.7 |
| 20260509190024 | 52 | 196 | 2.0 | 5.0 | 0.04 | 0.37 | 0.37 | 90 | 1007.9 |
| 20260509184521 | 52 | 204 | 1.0 | 4.0 | 0.04 | 0.36 | 0.36 | 90 | 1008.0 |
| 20260509183020 | 52 | 211 | 0.0 | 7.0 | 0.03 | 0.35 | 0.35 | 90 | 1007.9 |
| 20260509181518 | 52 | 311 | 1.0 | 9.0 | 0.02 | 0.34 | 0.34 | 90 | 1007.8 |
| 20260509180016 | 52 | 215 | 3.0 | 8.0 | 0.01 | 0.33 | 0.33 | 91 | 1007.8 |
| 20260509174517 | 52 | 192 | 3.0 | 7.0 | 0.00 | 0.32 | 0.32 | 91 | 1007.8 |
| 20260509173018 | 52 | 194 | 3.0 | 12.0 | 0.00 | 0.32 | 0.32 | 92 | 1007.9 |
| 20260509171513 | 52 | 209 | 4.0 | 9.0 | 0.00 | 0.32 | 0.32 | 92 | 1007.8 |
| 20260509170014 | 51 | 213 | 5.0 | 9.0 | 0.00 | 0.32 | 0.32 | 92 | 1007.8 |
| 20260509164509 | 51 | 211 | 5.0 | 10.0 | 0.00 | 0.32 | 0.32 | 92 | 1007.8 |
| 20260509163007 | 51 | 193 | 3.0 | 8.0 | 0.00 | 0.32 | 0.32 | 93 | 1008.0 |
| 20260509161506 | 51 | 204 | 1.0 | 6.0 | 0.00 | 0.32 | 0.32 | 93 | 1008.1 |
| 20260509160003 | 51 | 198 | 2.0 | 8.0 | 0.01 | 0.32 | 0.32 | 93 | 1008.3 |
| 20260509154612 | 50 | 267 | 1.0 | 10.0 | 0.01 | 0.32 | 0.32 | 93 | 1008.3 |
| 20260509153103 | 50 | 208 | 4.0 | 6.0 | 0.02 | 0.32 | 0.32 | 93 | 1008.5 |
| 20260509151556 | 50 | 197 | 3.0 | 9.0 | 0.02 | 0.32 | 0.32 | 93 | 1008.6 |
| 20260509150054 | 50 | 186 | 1.0 | 6.0 | 0.02 | 0.31 | 0.31 | 93 | 1008.8 |
| 20260509144557 | 50 | 31 | 0.0 | 2.0 | 0.02 | 0.31 | 0.31 | 93 | 1009.0 |
| 20260509143051 | 50 | 31 | 0.0 | 3.0 | 0.02 | 0.30 | 0.30 | 93 | 1009.1 |
| 20260509141546 | 49 | 31 | 1.0 | 2.0 | 0.03 | 0.30 | 0.30 | 93 | 1009.1 |
| 20260509140051 | 49 | 31 | 1.0 | 3.0 | 0.02 | 0.28 | 0.28 | 93 | 1009.1 |
| 20260509134543 | 49 | 31 | 1.0 | 3.0 | 0.02 | 0.28 | 0.28 | 93 | 1009.0 |
| 20260509133041 | 49 | 31 | 2.0 | 5.0 | 0.04 | 0.28 | 0.28 | 93 | 1009.1 |
| 20260509131543 | 49 | 31 | 2.0 | 4.0 | 0.05 | 0.27 | 0.27 | 93 | 1009.2 |
| 20260509130035 | 48 | 31 | 1.0 | 3.0 | 0.07 | 0.27 | 0.27 | 93 | 1009.4 |
| 20260509124534 | 48 | 31 | 0.0 | 1.0 | 0.08 | 0.26 | 0.26 | 93 | 1009.4 |
| 20260509123034 | 48 | 31 | 0.0 | 2.0 | 0.08 | 0.24 | 0.24 | 93 | 1009.7 |
| 20260509121534 | 48 | 31 | 1.0 | 3.0 | 0.08 | 0.22 | 0.22 | 93 | 1009.7 |
| 20260509120036 | 47 | 31 | 0.0 | 2.0 | 0.07 | 0.20 | 0.20 | 93 | 1009.8 |
| 20260509114533 | 47 | 31 | 0.0 | 2.0 | 0.06 | 0.18 | 0.18 | 92 | 1009.8 |
| 20260509113024 | 47 | 31 | 0.0 | 2.0 | 0.06 | 0.16 | 0.16 | 92 | 1009.8 |
| 20260509111523 | 46 | 31 | 1.0 | 3.0 | 0.07 | 0.14 | 0.14 | 92 | 1009.8 |
| 20260509110022 | 46 | 30 | 0.0 | 4.0 | 0.09 | 0.13 | 0.13 | 92 | 1009.6 |
| 20260509104520 | 46 | 30 | 1.0 | 4.0 | 0.08 | 0.12 | 0.12 | 92 | 1009.6 |
| 20260509103017 | 46 | 30 | 0.0 | 1.0 | 0.06 | 0.10 | 0.10 | 92 | 1009.7 |
| 20260509101517 | 46 | 30 | 0.0 | 2.0 | 0.03 | 0.07 | 0.07 | 92 | 1009.8 |
| 20260509100016 | 46 | 30 | 0.0 | 2.0 | 0.00 | 0.04 | 0.04 | 91 | 1009.6 |
| 20260509094514 | 45 | 30 | 1.0 | 3.0 | 0.00 | 0.04 | 0.04 | 91 | 1009.7 |
| 20260509093014 | 45 | 30 | 0.0 | 2.0 | 0.00 | 0.04 | 0.04 | 91 | 1009.6 |
| 20260509091513 | 45 | 30 | 0.0 | 3.0 | 0.00 | 0.04 | 0.04 | 91 | 1009.6 |
| 20260509090014 | 44 | 30 | 0.0 | 4.0 | 0.00 | 0.04 | 0.04 | 91 | 1009.6 |
| 20260509084513 | 45 | 30 | 0.0 | 3.0 | 0.01 | 0.04 | 0.04 | 90 | 1009.6 |
| 20260509083012 | 44 | 30 | 1.0 | 4.0 | 0.01 | 0.04 | 0.04 | 90 | 1009.9 |
| 20260509081514 | 44 | 34 | 1.0 | 4.0 | 0.01 | 0.04 | 0.04 | 89 | 1010.1 |
| 20260509080008 | 44 | 34 | 2.0 | 3.0 | 0.01 | 0.04 | 0.04 | 88 | 1010.3 |
| 20260509074508 | 44 | 34 | 0.0 | 0.0 | 0.00 | 0.03 | 0.03 | 88 | 1010.6 |
| 20260509073016 | 44 | 34 | 0.0 | 0.0 | 0.00 | 0.03 | 0.03 | 88 | 1010.4 |
| 20260509071507 | 44 | 34 | 0.0 | 0.0 | 0.01 | 0.03 | 0.03 | 87 | 1010.3 |
| 20260509070005 | 44 | 34 | 0.0 | 1.0 | 0.02 | 0.03 | 0.03 | 86 | 1010.3 |
| 20260509064504 | 44 | 34 | 0.0 | 2.0 | 0.03 | 0.03 | 0.03 | 86 | 1010.4 |
| 20260509063002 | 44 | 34 | 0.0 | 2.0 | 0.03 | 0.03 | 0.03 | 85 | 1010.5 |
| 20260509061603 | 45 | 34 | 1.0 | 3.0 | 0.02 | 0.02 | 0.02 | 84 | 1010.7 |
| 20260509060106 | 45 | 34 | 0.0 | 2.0 | 0.01 | 0.01 | 0.01 | 83 | 1010.9 |
| 20260509054613 | 45 | 34 | 0.0 | 1.0 | 0.00 | 0.00 | 0.00 | 82 | 1011.1 |
| 20260509053103 | 45 | 34 | 0.0 | 2.0 | 0.00 | 0.00 | 0.00 | 81 | 1011.0 |
| 20260509051557 | 45 | 34 | 1.0 | 2.0 | 0.00 | 0.00 | 0.00 | 80 | 1011.0 |
| 20260509050058 | 45 | 30 | 0.0 | 2.0 | 0.00 | 0.00 | 0.00 | 80 | 1011.0 |
| 20260509044555 | 45 | 30 | 0.0 | 4.0 | 0.00 | 0.00 | 0.00 | 80 | 1011.1 |
| 20260509043054 | 45 | 188 | 0.0 | 2.0 | 0.00 | 0.00 | 0.00 | 80 | 1011.1 |
| 20260509041555 | 45 | 188 | 0.0 | 2.0 | 0.00 | 0.00 | 0.00 | 80 | 1011.3 |
| 20260509040111 | 44 | 188 | 1.0 | 2.0 | 0.00 | 0.00 | 0.00 | 78 | 1011.2 |
| 20260509034550 | 44 | 188 | 0.0 | 1.0 | 0.00 | 0.00 | 0.00 | 77 | 1011.4 |
| 20260509033047 | 44 | 188 | 1.0 | 2.0 | 0.00 | 0.00 | 0.00 | 76 | 1011.3 |
| 20260509031547 | 44 | 188 | 1.0 | 2.0 | 0.00 | 0.00 | 0.00 | 75 | 1011.2 |
| 20260509030048 | 45 | 188 | 0.0 | 2.0 | 0.00 | 0.00 | 0.00 | 74 | 1011.2 |
| 20260509024548 | 45 | 188 | 1.0 | 2.0 | 0.00 | 0.00 | 0.00 | 73 | 1011.3 |
| 20260509023046 | 46 | 188 | 0.0 | 2.0 | 0.00 | 0.00 | 0.00 | 71 | 1011.4 |
| 20260509021546 | 47 | 188 | 1.0 | 2.0 | 0.00 | 0.00 | 0.00 | 69 | 1011.2 |
| 20260509020044 | 48 | 188 | 0.0 | 1.0 | 0.00 | 0.00 | 0.00 | 67 | 1011.3 |
| 20260509014544 | 49 | 188 | 0.0 | 2.0 | 0.00 | 0.00 | 0.00 | 65 | 1011.2 |
| 20260509013047 | 51 | 188 | 1.0 | 3.0 | 0.00 | 0.00 | 0.00 | 63 | 1011.1 |
| 20260509011554 | 54 | 190 | 2.0 | 4.0 | 0.00 | 0.00 | 0.00 | 59 | 1010.8 |
| 20260509010045 | 53 | 187 | 0.0 | 3.0 | 0.00 | 0.00 | 0.00 | 62 | 1010.7 |
| 20260509004551 | 52 | 193 | 3.0 | 5.0 | 0.00 | 0.00 | 0.00 | 61 | 1010.5 |
| 20260509003040 | 52 | 192 | 3.0 | 6.0 | 0.00 | 0.00 | 0.00 | 57 | 1010.3 |
| 20260509001539 | 55 | 40 | 1.0 | 2.0 | 0.00 | 0.00 | 0.00 | 55 | 1010.1 |
| 20260509000039 | 58 | 40 | 0.0 | 1.0 | 0.00 | 0.00 | 0.00 | 51 | 1009.8 |
| 20260508234537 | 60 | 40 | 0.0 | 1.0 | 0.00 | 0.00 | 0.00 | 44 | 1009.8 |
| 20260508233036 | 57 | 40 | 1.0 | 4.0 | 0.00 | 0.00 | 0.00 | 46 | 1009.7 |
| 20260508231536 | 56 | 65 | 1.0 | 4.0 | 0.00 | 0.00 | 0.00 | 46 | 1009.5 |
| 20260508230036 | 55 | 32 | 2.0 | 5.0 | 0.00 | 0.00 | 0.00 | 47 | 1009.6 |
| 20260508224534 | 57 | 28 | 3.0 | 4.0 | 0.00 | 0.00 | 0.00 | 44 | 1009.5 |
| 20260508223041 | 57 | 211 | 0.0 | 3.0 | 0.00 | 0.00 | 0.00 | 48 | 1009.6 |
| 20260508221531 | 56 | 325 | 1.0 | 3.0 | 0.00 | 0.00 | 0.00 | 43 | 1009.6 |
| 20260508220033 | 56 | 230 | 2.0 | 5.0 | 0.00 | 0.00 | 0.00 | 44 | 1009.5 |
| 20260508214538 | 57 | 290 | 2.0 | 8.0 | 0.00 | 0.00 | 0.00 | 45 | 1009.6 |
| 20260508213034 | 57 | 170 | 3.0 | 7.0 | 0.00 | 0.00 | 0.00 | 44 | 1009.8 |
| 20260508211530 | 56 | 311 | 2.0 | 4.0 | 0.00 | 0.00 | 0.00 | 46 | 1009.8 |
| 20260508210026 | 56 | 244 | 1.0 | 4.0 | 0.00 | 0.00 | 0.00 | 45 | 1009.9 |
| 20260508204531 | 57 | 23 | 5.0 | 13.0 | 0.00 | 0.00 | 0.00 | 44 | 1010.0 |
| 20260508203023 | 55 | 20 | 1.0 | 8.0 | 0.00 | 0.00 | 0.00 | 48 | 1010.2 |
| 20260508201524 | 56 | 348 | 1.0 | 4.0 | 0.00 | 0.00 | 0.00 | 45 | 1010.3 |